Time,TemperatureF,DewpointF,PressureIn,WindDirection,WindDirectionDegrees,WindSpeedMPH,WindSpeedGustMPH,Humidity,HourlyPrecipIn,Conditions,Clouds,dailyrainin,SolarRadiationWatts/m^2,SoftwareType,DateUTC
2013-03-29 00:03:00,27.0,16.0,-100.00,NE,34,2.0,3.0,64,0.00,,,-99.99,0.000000,,2013-03-29 04:03:00,
2013-03-29 00:23:00,26.0,17.0,-100.00,NNE,30,1.0,5.0,69,0.00,,,-99.99,0.000000,,2013-03-29 04:23:00,
2013-03-29 00:33:00,26.0,17.0,-100.00,NNE,30,1.0,5.0,69,0.00,,,-99.99,0.000000,,2013-03-29 04:33:00,
2013-03-29 00:43:00,26.0,17.0,-100.00,NNE,30,1.0,5.0,69,0.00,,,-99.99,0.000000,,2013-03-29 04:43:00,
2013-03-29 00:53:00,26.0,17.0,-100.00,NNE,30,1.0,5.0,69,0.00,,,-99.99,0.000000,,2013-03-29 04:53:00,
2013-03-29 01:03:00,26.0,17.0,-100.00,NNE,30,1.0,5.0,69,0.00,,,-99.99,0.000000,,2013-03-29 05:03:00,
2013-03-29 01:23:00,24.0,17.0,-100.00,East,95,1.0,3.0,74,0.00,,,-99.99,0.000000,,2013-03-29 05:23:00,
2013-03-29 01:33:00,24.0,17.0,-100.00,East,95,1.0,3.0,74,0.00,,,-99.99,0.000000,,2013-03-29 05:33:00,
2013-03-29 01:43:00,24.0,17.0,-100.00,East,95,1.0,3.0,74,0.00,,,-99.99,0.000000,,2013-03-29 05:43:00,
2013-03-29 01:52:00,24.0,17.0,-100.00,East,95,1.0,3.0,74,0.00,,,-99.99,0.000000,,2013-03-29 05:52:00,
2013-03-29 02:02:00,24.0,17.0,-100.00,East,95,1.0,3.0,74,0.00,,,-99.99,0.000000,,2013-03-29 06:02:00,
2013-03-29 02:23:00,23.0,17.0,-100.00,NNE,16,2.0,4.0,76,0.00,,,-99.99,0.000000,,2013-03-29 06:23:00,
2013-03-29 02:32:00,23.0,17.0,-100.00,NNE,16,2.0,4.0,76,0.00,,,-99.99,0.000000,,2013-03-29 06:32:00,
2013-03-29 02:42:00,23.0,17.0,-100.00,NNE,16,2.0,4.0,76,0.00,,,-99.99,0.000000,,2013-03-29 06:42:00,
2013-03-29 02:52:00,23.0,17.0,-100.00,NNE,16,2.0,4.0,76,0.00,,,-99.99,0.000000,,2013-03-29 06:52:00,
2013-03-29 03:03:00,23.0,17.0,-100.00,NNE,16,2.0,4.0,76,0.00,,,-99.99,0.000000,,2013-03-29 07:03:00,
2013-03-29 03:32:00,22.0,16.0,-100.00,NNE,16,2.0,3.0,79,0.00,,,-99.99,0.000000,,2013-03-29 07:32:00,
2013-03-29 03:42:00,22.0,16.0,-100.00,NNE,16,2.0,3.0,79,0.00,,,-99.99,0.000000,,2013-03-29 07:42:00,
2013-03-29 03:52:00,22.0,16.0,-100.00,NNE,16,2.0,3.0,79,0.00,,,-99.99,0.000000,,2013-03-29 07:52:00,
2013-03-29 04:02:00,22.0,16.0,-100.00,NNE,16,2.0,3.0,79,0.00,,,-99.99,0.000000,,2013-03-29 08:02:00,
2013-03-29 04:32:00,21.0,16.0,-100.00,NNE,16,1.0,3.0,82,0.00,,,-99.99,0.000000,,2013-03-29 08:32:00,
2013-03-29 04:42:00,21.0,16.0,-100.00,NNE,16,1.0,3.0,82,0.00,,,-99.99,0.000000,,2013-03-29 08:42:00,
2013-03-29 04:53:00,21.0,16.0,-100.00,NNE,16,1.0,3.0,82,0.00,,,-99.99,0.000000,,2013-03-29 08:53:00,
2013-03-29 05:02:00,21.0,16.0,-100.00,NNE,16,1.0,3.0,82,0.00,,,-99.99,0.000000,,2013-03-29 09:02:00,
2013-03-29 05:33:00,20.0,16.0,-100.00,NNE,16,1.0,3.0,85,0.00,,,-99.99,0.000000,,2013-03-29 09:33:00,
2013-03-29 05:43:00,20.0,16.0,-100.00,NNE,16,1.0,3.0,85,0.00,,,-99.99,0.000000,,2013-03-29 09:43:00,
2013-03-29 05:52:00,20.0,16.0,-100.00,NNE,16,1.0,3.0,85,0.00,,,-99.99,0.000000,,2013-03-29 09:52:00,
2013-03-29 06:03:00,20.0,16.0,-100.00,NNE,16,1.0,3.0,85,0.00,,,-99.99,0.000000,,2013-03-29 10:03:00,
2013-03-29 06:33:00,20.0,17.0,-100.00,NNE,16,1.0,4.0,87,0.00,,,-99.99,0.000000,,2013-03-29 10:33:00,
2013-03-29 06:42:00,20.0,17.0,-100.00,NNE,16,1.0,4.0,87,0.00,,,-99.99,0.000000,,2013-03-29 10:42:00,
2013-03-29 06:53:00,20.0,17.0,-100.00,NNE,16,1.0,4.0,87,0.00,,,-99.99,0.000000,,2013-03-29 10:53:00,
2013-03-29 07:03:00,20.0,17.0,-100.00,NNE,16,1.0,4.0,87,0.00,,,-99.99,0.000000,,2013-03-29 11:03:00,
2013-03-29 07:33:00,19.0,16.0,-100.00,NNE,16,1.0,3.0,88,0.00,,,-99.99,0.000000,,2013-03-29 11:33:00,
2013-03-29 07:43:00,19.0,16.0,-100.00,NNE,16,1.0,3.0,88,0.00,,,-99.99,0.000000,,2013-03-29 11:43:00,
2013-03-29 07:53:00,19.0,16.0,-100.00,NNE,16,1.0,3.0,88,0.00,,,-99.99,0.000000,,2013-03-29 11:53:00,
2013-03-29 08:03:00,19.0,16.0,-100.00,NNE,16,1.0,3.0,88,0.00,,,-99.99,0.000000,,2013-03-29 12:03:00,
2013-03-29 08:33:00,20.0,17.0,-100.00,NNE,16,2.0,4.0,88,0.00,,,-99.99,13.000000,,2013-03-29 12:33:00,
2013-03-29 08:43:00,20.0,17.0,-100.00,NNE,16,2.0,4.0,88,0.00,,,-99.99,13.000000,,2013-03-29 12:43:00,
2013-03-29 08:53:00,20.0,17.0,-100.00,NNE,16,2.0,4.0,88,0.00,,,-99.99,13.000000,,2013-03-29 12:53:00,
2013-03-29 09:03:00,20.0,17.0,-100.00,NNE,16,2.0,4.0,88,0.00,,,-99.99,13.000000,,2013-03-29 13:03:00,
2013-03-29 09:33:00,33.0,25.0,-100.00,NE,56,2.0,3.0,72,0.00,,,-99.99,55.000000,,2013-03-29 13:33:00,
2013-03-29 09:43:00,33.0,25.0,-100.00,NE,56,2.0,3.0,72,0.00,,,-99.99,55.000000,,2013-03-29 13:43:00,
2013-03-29 09:53:00,33.0,25.0,-100.00,NE,56,2.0,3.0,72,0.00,,,-99.99,55.000000,,2013-03-29 13:53:00,
2013-03-29 10:03:00,33.0,25.0,-100.00,NE,56,2.0,3.0,72,0.00,,,-99.99,55.000000,,2013-03-29 14:03:00,
2013-03-29 10:33:00,45.0,15.0,-100.00,WSW,240,5.0,8.0,29,0.00,,,-99.99,328.000000,,2013-03-29 14:33:00,
2013-03-29 10:42:00,45.0,15.0,-100.00,WSW,240,5.0,8.0,29,0.00,,,-99.99,328.000000,,2013-03-29 14:42:00,
2013-03-29 10:53:00,45.0,15.0,-100.00,WSW,240,5.0,8.0,29,0.00,,,-99.99,328.000000,,2013-03-29 14:53:00,
2013-03-29 11:02:00,45.0,15.0,-100.00,WSW,240,5.0,8.0,29,0.00,,,-99.99,328.000000,,2013-03-29 15:02:00,
2013-03-29 11:33:00,47.0,8.0,-100.00,WSW,250,4.0,11.0,20,0.00,,,-99.99,453.000000,,2013-03-29 15:33:00,
2013-03-29 11:43:00,47.0,8.0,-100.00,WSW,250,4.0,11.0,20,0.00,,,-99.99,453.000000,,2013-03-29 15:43:00,
2013-03-29 11:53:00,47.0,8.0,-100.00,WSW,250,4.0,11.0,20,0.00,,,-99.99,453.000000,,2013-03-29 15:53:00,
2013-03-29 12:03:00,47.0,8.0,-100.00,WSW,250,4.0,11.0,20,0.00,,,-99.99,453.000000,,2013-03-29 16:03:00,
2013-03-29 12:33:00,50.0,14.0,-100.00,SSE,157,5.0,8.0,23,0.00,,,-99.99,481.000000,,2013-03-29 16:33:00,
2013-03-29 12:43:00,50.0,14.0,-100.00,SSE,157,5.0,8.0,23,0.00,,,-99.99,481.000000,,2013-03-29 16:43:00,
2013-03-29 12:53:00,50.0,14.0,-100.00,SSE,157,5.0,8.0,23,0.00,,,-99.99,481.000000,,2013-03-29 16:53:00,
2013-03-29 13:03:00,50.0,14.0,-100.00,SSE,157,5.0,8.0,23,0.00,,,-99.99,481.000000,,2013-03-29 17:03:00,
2013-03-29 13:33:00,50.0,18.0,-100.00,SSW,194,4.0,11.0,28,0.00,,,-99.99,347.000000,,2013-03-29 17:33:00,
2013-03-29 13:43:00,50.0,18.0,-100.00,SSW,194,4.0,11.0,28,0.00,,,-99.99,347.000000,,2013-03-29 17:43:00,
2013-03-29 13:53:00,50.0,18.0,-100.00,SSW,194,4.0,11.0,28,0.00,,,-99.99,347.000000,,2013-03-29 17:53:00,
2013-03-29 14:02:00,50.0,18.0,-100.00,SSW,194,4.0,11.0,28,0.00,,,-99.99,347.000000,,2013-03-29 18:02:00,
2013-03-29 14:33:00,50.0,20.0,-100.00,ESE,117,2.0,8.0,30,0.00,,,0.00,221.000000,,2013-03-29 18:33:00,
2013-03-29 14:43:00,50.0,20.0,-100.00,ESE,117,2.0,8.0,30,0.00,,,0.00,221.000000,,2013-03-29 18:43:00,
2013-03-29 14:53:00,50.0,20.0,-100.00,ESE,117,2.0,8.0,30,0.00,,,0.00,221.000000,,2013-03-29 18:53:00,
2013-03-29 15:03:00,50.0,20.0,-100.00,ESE,117,2.0,8.0,30,0.00,,,0.00,221.000000,,2013-03-29 19:03:00,
2013-03-29 15:23:00,48.0,20.0,-100.00,North,356,3.0,10.0,33,0.00,,,0.00,107.000000,,2013-03-29 19:23:00,
2013-03-29 15:33:00,48.0,20.0,-100.00,North,356,3.0,10.0,33,0.00,,,0.00,107.000000,,2013-03-29 19:33:00,
2013-03-29 15:43:00,48.0,20.0,-100.00,North,356,3.0,10.0,33,0.00,,,0.00,107.000000,,2013-03-29 19:43:00,
2013-03-29 15:53:00,48.0,20.0,-100.00,North,356,3.0,10.0,33,0.00,,,0.00,107.000000,,2013-03-29 19:53:00,
2013-03-29 16:03:00,48.0,20.0,-100.00,North,356,3.0,10.0,33,0.00,,,0.00,107.000000,,2013-03-29 20:03:00,
2013-03-29 16:33:00,45.0,27.0,-100.00,NNW,330,3.0,10.0,49,0.00,,,0.00,150.000000,,2013-03-29 20:33:00,
2013-03-29 16:42:00,45.0,27.0,-100.00,NNW,330,3.0,10.0,49,0.00,,,0.00,150.000000,,2013-03-29 20:42:00,
2013-03-29 16:52:00,45.0,27.0,-100.00,NNW,330,3.0,10.0,49,0.00,,,0.00,150.000000,,2013-03-29 20:52:00,
2013-03-29 17:02:00,45.0,27.0,-100.00,NNW,330,3.0,10.0,49,0.00,,,0.00,150.000000,,2013-03-29 21:02:00,
2013-03-29 17:22:00,42.0,35.0,-100.00,ENE,74,4.0,9.0,75,0.01,,,0.01,113.000000,,2013-03-29 21:22:00,
2013-03-29 17:33:00,42.0,35.0,-100.00,ENE,74,4.0,9.0,75,0.01,,,0.01,113.000000,,2013-03-29 21:33:00,
2013-03-29 17:43:00,42.0,35.0,-100.00,ENE,74,4.0,9.0,75,0.01,,,0.01,113.000000,,2013-03-29 21:43:00,
2013-03-29 17:53:00,42.0,35.0,-100.00,ENE,74,4.0,9.0,75,0.01,,,0.01,113.000000,,2013-03-29 21:53:00,
2013-03-29 18:03:00,42.0,35.0,-100.00,ENE,74,4.0,9.0,75,0.01,,,0.01,113.000000,,2013-03-29 22:03:00,
2013-03-29 18:34:00,43.0,36.0,-100.00,ESE,117,2.0,5.0,76,0.00,,,0.01,98.000000,,2013-03-29 22:34:00,
2013-03-29 18:43:00,43.0,36.0,-100.00,ESE,117,2.0,5.0,76,0.00,,,0.01,98.000000,,2013-03-29 22:43:00,
2013-03-29 18:54:00,43.0,36.0,-100.00,ESE,117,2.0,5.0,76,0.00,,,0.01,98.000000,,2013-03-29 22:54:00,
2013-03-29 19:03:00,43.0,36.0,-100.00,ESE,117,2.0,5.0,76,0.00,,,0.01,98.000000,,2013-03-29 23:03:00,
2013-03-29 19:32:00,42.0,36.0,-100.00,ENE,71,3.0,9.0,78,0.00,,,0.01,64.000000,,2013-03-29 23:32:00,
2013-03-29 19:43:00,42.0,36.0,-100.00,ENE,71,3.0,9.0,78,0.00,,,0.01,64.000000,,2013-03-29 23:43:00,
2013-03-29 19:53:00,42.0,36.0,-100.00,ENE,71,3.0,9.0,78,0.00,,,0.01,64.000000,,2013-03-29 23:53:00,
2013-03-29 20:03:00,42.0,36.0,-100.00,ENE,71,3.0,9.0,78,0.00,,,0.01,64.000000,,2013-03-30 00:03:00,
2013-03-29 20:22:00,39.0,37.0,-100.00,West,273,3.0,6.0,92,0.02,,,0.03,8.000000,,2013-03-30 00:22:00,
2013-03-29 20:33:00,39.0,37.0,-100.00,West,273,3.0,6.0,92,0.02,,,0.03,8.000000,,2013-03-30 00:33:00,
2013-03-29 20:43:00,39.0,37.0,-100.00,West,273,3.0,6.0,92,0.02,,,0.03,8.000000,,2013-03-30 00:43:00,
2013-03-29 20:53:00,39.0,37.0,-100.00,West,273,3.0,6.0,92,0.02,,,0.03,8.000000,,2013-03-30 00:53:00,
2013-03-29 21:03:00,39.0,37.0,-100.00,West,273,3.0,6.0,92,0.02,,,0.03,8.000000,,2013-03-30 01:03:00,
2013-03-29 21:23:00,38.0,37.0,-100.00,NE,37,2.0,5.0,95,0.01,,,0.04,0.000000,,2013-03-30 01:23:00,
2013-03-29 21:33:00,38.0,37.0,-100.00,NE,37,2.0,5.0,95,0.01,,,0.04,0.000000,,2013-03-30 01:33:00,
2013-03-29 21:43:00,38.0,37.0,-100.00,NE,37,2.0,5.0,95,0.01,,,0.04,0.000000,,2013-03-30 01:43:00,
2013-03-29 21:53:00,38.0,37.0,-100.00,NE,37,2.0,5.0,95,0.01,,,0.04,0.000000,,2013-03-30 01:53:00,
2013-03-29 22:03:00,38.0,37.0,-100.00,NE,37,2.0,5.0,95,0.01,,,0.04,0.000000,,2013-03-30 02:03:00,
2013-03-29 22:22:00,37.0,36.0,-100.00,North,352,2.0,8.0,96,0.00,,,0.04,0.000000,,2013-03-30 02:22:00,
2013-03-29 22:33:00,37.0,36.0,-100.00,North,352,2.0,8.0,96,0.00,,,0.04,0.000000,,2013-03-30 02:33:00,
2013-03-29 22:43:00,37.0,36.0,-100.00,North,352,2.0,8.0,96,0.00,,,0.04,0.000000,,2013-03-30 02:43:00,
2013-03-29 22:53:00,37.0,36.0,-100.00,North,352,2.0,8.0,96,0.00,,,0.04,0.000000,,2013-03-30 02:53:00,
2013-03-29 23:03:00,37.0,36.0,-100.00,North,352,2.0,8.0,96,0.00,,,0.04,0.000000,,2013-03-30 03:03:00,
2013-03-29 23:33:00,37.0,36.0,-100.00,WSW,241,2.0,5.0,97,0.00,,,0.04,0.000000,,2013-03-30 03:33:00,
2013-03-29 23:43:00,37.0,36.0,-100.00,WSW,241,2.0,5.0,97,0.00,,,0.04,0.000000,,2013-03-30 03:43:00,
2013-03-29 23:53:00,37.0,36.0,-100.00,WSW,241,2.0,5.0,97,0.00,,,0.04,0.000000,,2013-03-30 03:53:00,